Location: *
(34.0486°S, 61.7880°E)
Time: 13:13:17
(UTC+00:00)

Lacrosse 5 - Pass Details

Date: 01 April 2020
Orbit: 715 x 724 km, 57.0° (Epoch: 27 May)

Event Time Altitude Azimuth Distance (km) Brightness Sun altitude
Rises 14:51:53 0° 344° (NNW) 3,123 5.3 -14.2°
Reaches altitude 10° 14:54:25 10° 353° (N) 2,210 4.4 -14.7°
Maximum altitude 14:59:03 36° 58° (ENE) 1,147 2.5 -15.7°
Enters shadow 15:01:10 25° 103° (ESE) 1,442 2.9 -16.1°
